Location: Unspecified
(47.9110°N, 14.3980°E)
Time: 05:10:13
(UTC+00:00)

Okean 1 - Pass Details

Date: 06 August 2020
Orbit: 539 x 554 km, 82.5° (Epoch: 19 September)

Event Time Altitude Azimuth Distance (km) Brightness Sun altitude
Rises 20:33:52 0° 355° (N) 2,736 7.8 -17.1°
Reaches altitude 10° 20:36:07 10° 2° (N) 1,840 6.7 -17.3°
Maximum altitude 20:40:00 44° 76° (ENE) 771 3.8 -17.7°
Enters shadow 20:40:57 37° 114° (ESE) 872 3.9 -17.8°
